Location: Unspecified
(0.0000°N, 0.0000°E)
Time: 12:41:50
(UTC+00:00)

Hubble Space Telescope - Pass Details

Date: 18 June 2021
Orbit: 535 x 539 km, 28.5° (Epoch: 18 June)

Event Time Altitude Azimuth Distance (km) Brightness Sun altitude
Rises 20:20:02 0° 324° (NW) 2,658 5.2 -31.5°
Reaches altitude 10° 20:22:48 10° 343° (NNW) 1,771 3.9 -32.1°
Enters shadow 20:23:11 12° 347° (NNW) 1,672 3.7 -32.2°
